VVY YSBK-YSSY

Flight info

Callsign VVY
Flight time 0h -12m
Altitude 1000
Route HBB DCT DHH DCT REDF DCT ERSK DCT APST
Aircraft R66/L-SFG/C

Departure

Time 2026-05-07 07:01
Airport Sydney Bankstown Airport (YSBK)

Arrival

Time 2026-05-07 06:49
Airport Sydney Kingsford Smith International Airport (YSSY)
Time Latitude Longitude Altitude Speed Heading
2026-05-07 06:49 -33.92111 150.99182 26 ft 0 kts 125°
2026-05-07 07:00 -33.92101 150.99198 47 ft 12 kts 285°
2026-05-07 07:00 -33.92067 150.99208 248 ft 17 kts 280°
2026-05-07 07:01 -33.91844 150.99212 533 ft 37 kts 345°
2026-05-07 07:01 -33.91546 150.99215 828 ft 50 kts 341°
2026-05-07 07:01 -33.91132 150.99288 1054 ft 72 kts 348°
2026-05-07 07:01 -33.90531 150.99342 1025 ft 98 kts 347°
2026-05-07 07:02 -33.89813 150.99335 1019 ft 107 kts 343°
2026-05-07 07:02 -33.89043 150.99365 1019 ft 118 kts 356°
2026-05-07 07:02 -33.88254 150.99760 1023 ft 128 kts 25°
2026-05-07 07:02 -33.87557 151.00439 1018 ft 129 kts 35°
2026-05-07 07:03 -33.86926 151.01217 1017 ft 130 kts 39°
2026-05-07 07:03 -33.86307 151.02004 1021 ft 129 kts 40°
2026-05-07 07:03 -33.85677 151.02761 979 ft 131 kts 38°
2026-05-07 07:03 -33.85019 151.03490 991 ft 126 kts 31°
2026-05-07 07:04 -33.84343 151.04147 822 ft 129 kts 28°
2026-05-07 07:04 -33.83602 151.04779 661 ft 125 kts 25°
2026-05-07 07:04 -33.82968 151.05347 677 ft 104 kts 28°
2026-05-07 07:04 -33.82437 151.05856 694 ft 95 kts 28°
2026-05-07 07:05 -33.81938 151.06380 695 ft 95 kts 28°
2026-05-07 07:05 -33.81491 151.06967 686 ft 95 kts 48°
2026-05-07 07:05 -33.81170 151.07639 692 ft 91 kts 62°
2026-05-07 07:05 -33.80936 151.08348 692 ft 92 kts 65°
2026-05-07 07:06 -33.80733 151.09089 691 ft 94 kts 66°
2026-05-07 07:06 -33.80530 151.09827 696 ft 94 kts 66°
2026-05-07 07:06 -33.80297 151.10575 689 ft 96 kts 65°
2026-05-07 07:06 -33.80030 151.11315 694 ft 98 kts 62°
2026-05-07 07:07 -33.79733 151.12039 695 ft 100 kts 66°
2026-05-07 07:07 -33.79771 151.12873 695 ft 105 kts 115°
2026-05-07 07:07 -33.80097 151.13762 757 ft 126 kts 126°
2026-05-07 07:07 -33.80545 151.14733 876 ft 141 kts 128°
2026-05-07 07:08 -33.81037 151.15795 940 ft 144 kts 126°
2026-05-07 07:08 -33.81477 151.16900 1053 ft 150 kts 121°
2026-05-07 07:08 -33.81785 151.18100 1023 ft 153 kts 109°
2026-05-07 07:08 -33.81981 151.19296 1019 ft 138 kts 109°
2026-05-07 07:09 -33.82420 151.20202 1016 ft 116 kts 150°
2026-05-07 07:09 -33.83050 151.20674 1006 ft 98 kts 168°
2026-05-07 07:09 -33.83633 151.20973 1009 ft 82 kts 177°
2026-05-07 07:09 -33.84093 151.21135 1017 ft 61 kts 191°
2026-05-07 07:10 -33.84478 151.21142 1037 ft 52 kts 207°